This is the latest recevied weather packets stored in our database for station/object W8AN. If no packets are shown the sender has not sent any weather packets the latest 1 day(s).
| Time | Temp. | Humidity | Pressure | Rain* | Wind** | Luminosity | Snow |
|---|---|---|---|---|---|---|---|
| 1778070756 | 8.33° C | 79% | 4265.8 hPa | 0 mm | - | 145 W/m² | - |
| 1778070150 | 7.78° C | 80% | 4265.5 hPa | 0 mm | - | 146 W/m² | - |
| 1778069848 | 7.78° C | 81% | 4265.4 hPa | 0 mm | - | 188 W/m² | - |
| 1778069242 | 7.22° C | 82% | 4265.3 hPa | 0 mm | - | 109 W/m² | - |
| 1778065309 | 6.67° C | 83% | 4264.8 hPa | 0 mm | - | 6 W/m² | - |
| 1778065005 | 6.67° C | 83% | 4264.5 hPa | 0 mm | - | 3 W/m² | - |
| 1778064098 | 6.67° C | 84% | 4264.1 hPa | 0 mm | - | 3 W/m² | - |
| 1778063795 | 6.67° C | 84% | 4264 hPa | 0 mm | - | 0 W/m² | - |
| 1778063190 | 6.67° C | 84% | 4263.9 hPa | 0 mm | - | 0 W/m² | - |
| 1778062887 | 6.67° C | 84% | 4263.6 hPa | 0 mm | - | 0 W/m² | - |
| 1778062280 | 6.67° C | 84% | 4263.9 hPa | 0 mm | - | 0 W/m² | - |
| 1778061979 | 6.67° C | 84% | 4263.9 hPa | 0 mm | - | 0 W/m² | - |
| 1778060769 | 6.67° C | 84% | 4263.9 hPa | 0 mm | - | 0 W/m² | - |
| 1778060165 | 6.67° C | 84% | 4263.9 hPa | 0 mm | - | 0 W/m² | - |
| 1778059862 | 6.67° C | 84% | 4263.6 hPa | 0 mm | - | 0 W/m² | - |
| 1778059256 | 6.67° C | 84% | 4264.1 hPa | 0 mm | - | 0 W/m² | - |
| 1778058349 | 6.67° C | 84% | 4264.2 hPa | 0 mm | - | 0 W/m² | - |
| 1778057136 | 6.67° C | 85% | 4263.6 hPa | 0 mm | - | 0 W/m² | - |
| 1778055923 | 6.67° C | 84% | 4264.2 hPa | 0 mm | - | 0 W/m² | - |
| 1778055619 | 6.67° C | 84% | 4264.3 hPa | 0 mm | - | 0 W/m² | - |
| 1778055317 | 6.67° C | 84% | 4264.2 hPa | 0 mm | - | 0 W/m² | - |
| 1778054712 | 6.67° C | 84% | 4263.7 hPa | 1.78 mm | - | 0 W/m² | - |
| 1778052895 | 6.67° C | 84% | 4264 hPa | 3.05 mm | - | 0 W/m² | - |
| 1778052592 | 6.67° C | 84% | 4263.6 hPa | 3.05 mm | - | 0 W/m² | - |
| 1778052289 | 7.22° C | 84% | 4263.7 hPa | 3.05 mm | - | 0 W/m² | - |
* Rain latest hour (hover to see other rain measurements)
** Current wind speed in m/s (hover to see current wind gust speed)